EW6790 Weather Reports


time (UTC)temp
F
wind
direction
speed
knots
gust
knots
rain 1hr
in
rain 24hr
in
rain mn
in
humidity
%
barometer
mb
20260902040100 72 209 3.5 7.8 0.01 0.01 0.01 86 1010.2
20260902034558 72 63 3.5 6.1 0.01 0.01 0.01 85 1009.9
20260902033038 72 360 0.0 6.1 0.00 0.00 0.00 87 1010.3
20260902031536 73 60 1.7 5.2 0.00 0.00 0.00 86 1010.1
20260902030020 73 72 0.0 1.7 0.00 0.00 0.00 84 1010.4
20260902024517 73 71 0.0 4.3 0.00 0.00 0.00 82 1010.4
20260902023105 73 77 3.5 5.2 0.00 0.00 0.00 81 1010.3
20260902021603 73 80 3.5 4.3 0.00 0.00 0.00 85 1010.0
20260902020040 73 67 3.5 6.1 0.00 0.00 0.00 85 1010.1
20260902014543 74 70 3.5 4.3 0.00 0.00 0.00 84 1010.2
20260902013018 75 78 3.5 5.2 0.00 0.00 0.00 84 1010.1
20260902011522 76 80 4.3 5.2 0.00 0.00 0.00 83 1010.1
20260902010118 76 64 3.5 6.1 0.00 0.00 0.00 83 1010.2
20260902004556 77 69 0.0 4.3 0.00 0.00 0.00 86 1010.2
20260902003035 77 66 1.7 3.5 0.00 0.00 0.00 86 1010.0
20260902001532 78 78 2.6 4.3 0.00 0.00 0.00 84 1010.1
20260902000020 78 70 3.5 5.2 0.00 0.00 0.00 84 1010.2
20260901234509 79 59 2.6 4.3 0.00 0.00 0.00 83 1010.3
20260901233059 79 72 2.6 4.3 0.00 0.00 0.00 84 1010.3
20260901231555 80 71 3.5 4.3 0.00 0.00 0.00 82 1010.3
20260901230034 80 61 0.9 3.5 0.00 0.00 0.00 82 1010.3
20260901224539 81 86 2.6 4.3 0.00 0.00 0.00 82 1010.3
20260901223040 81 74 2.6 5.2 0.00 0.00 0.00 80 1010.2
20260901221514 81 75 3.5 5.2 0.00 0.00 0.00 82 1010.3
20260901220013 81 94 3.5 5.2 0.00 0.00 0.00 81 1010.4
20260901214513 81 59 2.6 5.2 0.00 0.00 0.00 82 1010.4
20260901213010 82 80 0.9 4.3 0.00 0.00 0.00 78 1010.7
20260901211517 83 107 2.6 7.0 0.00 0.00 0.00 75 1010.6
20260901210006 83 94 2.6 5.2 0.00 0.00 0.00 81 1010.5
20260901204505 83 103 0.9 4.3 0.00 0.00 0.00 77 1010.9
20260901203045 84 85 2.6 6.1 0.00 0.00 0.00 71 1010.8
20260901201543 85 87 4.3 7.0 0.00 0.00 0.00 70 1010.5
20260901200039 85 88 3.5 6.1 0.00 0.00 0.00 75 1010.6
20260901194522 85 95 1.7 4.3 0.00 0.00 0.00 76 1010.8
20260901193004 85 77 2.6 4.3 0.00 0.00 0.00 76 1010.8
20260901191503 86 104 0.9 2.6 0.00 0.00 0.00 69 1011.1
20260901190101 86 140 0.0 3.5 0.00 0.00 0.00 71 1011.5
20260901184546 86 88 2.6 6.1 0.00 0.00 0.00 67 1011.3
20260901183045 86 117 0.9 6.1 0.00 0.00 0.00 68 1011.3
20260901181543 85 122 1.7 4.3 0.00 0.00 0.00 70 1011.5
20260901180038 85 85 0.0 1.7 0.00 0.00 0.00 76 1011.9
20260901174545 85 75 1.7 4.3 0.00 0.00 0.00 73 1012.1
20260901173033 86 79 0.9 2.6 0.00 0.00 0.00 70 1012.3
20260901171536 85 13 0.0 4.3 0.00 0.00 0.00 73 1012.5
20260901170024 85 86 0.0 1.7 0.00 0.00 0.00 75 1012.5
20260901164515 85 118 1.7 3.5 0.00 0.00 0.00 75 1012.3
20260901163102 85 31 0.9 3.5 0.00 0.00 0.00 75 1012.2
20260901161611 85 329 0.0 1.7 0.00 0.00 0.00 76 1012.2
20260901160038 85 80 0.9 2.6 0.00 0.00 0.00 74 1012.3
20260901154538 84 174 0.0 2.6 0.00 0.00 0.00 76 1012.3
20260901153019 83 115 0.9 2.6 0.00 0.00 0.00 78 1012.3
20260901151518 82 150 0.0 1.7 0.00 0.00 0.00 78 1012.3
20260901150100 81 160 1.7 3.5 0.00 0.00 0.00 80 1012.4
20260901144600 79 205 1.7 3.5 0.00 0.00 0.00 82 1012.3
20260901143043 78 157 0.9 3.5 0.00 0.00 0.00 84 1012.4
20260901141543 77 147 0.9 3.5 0.00 0.00 0.00 84 1012.6
20260901140028 76 132 1.7 3.5 0.00 0.00 0.00 84 1012.7
20260901134522 75 209 0.0 0.0 0.00 0.00 0.00 87 1013.0
20260901133003 70 209 0.0 0.0 0.00 0.00 0.00 82 1013.1
20260901131507 69 209 0.0 0.0 0.00 0.00 0.00 79 1012.9
20260901130056 0 0.0 0.0 0.00 0.00 0.00 1012.9
20260901124539 0 0.0 0.0 0.00 0.00 0.00 1012.8
20260901123018 0 0.0 0.0 0.00 0.00 0.00 1012.8
20260901121517 0 0.0 0.0 0.00 0.00 0.00 1012.6
20260901120058 0 0.0 0.0 0.00 0.00 0.00 1012.4
20260901114555 0 0.0 0.0 0.00 0.00 0.00 1012.4
20260901113056 0 0.0 0.0 0.00 0.00 0.00 1012.0
20260901111545 0 0.0 0.0 0.00 0.00 0.00 1012.1
20260901110040 0 0.0 0.0 0.00 0.00 0.00 1011.8
20260901104536 0 0.0 0.0 0.00 0.00 0.00 1012.0
20260901103032 0 0.0 0.0 0.00 0.00 0.00 1011.9
20260901101528 0 0.0 0.0 0.00 0.00 0.00 1011.7
20260901100009 65 202 0.0 0.0 0.00 0.00 0.00 59 1011.8
20260901094507 66 194 0.0 0.9 0.00 0.00 0.00 58 1011.8
20260901093106 66 194 0.0 0.9 0.00 0.00 0.00 56 1011.8
20260901091549 66 195 0.0 2.6 0.00 0.00 0.00 59 1011.7
20260901090049 66 205 0.9 2.6 0.00 0.00 0.00 60 1011.8
20260901084532 67 204 1.7 3.5 0.00 0.00 0.00 58 1011.8
20260901083035 66 178 0.0 0.9 0.00 0.00 0.00 55 1011.7
20260901081515 66 178 0.0 1.7 0.00 0.00 0.00 57 1011.5
20260901080010 66 209 0.9 2.6 0.00 0.00 0.00 57 1011.8
20260901074552 66 188 0.9 2.6 0.00 0.00 0.00 65 1011.8
20260901073051 66 158 0.9 1.7 0.00 0.00 0.00 62 1011.8
20260901071535 67 155 0.9 1.7 0.00 0.00 0.00 61 1011.8
20260901070032 67 154 0.0 0.9 0.00 0.00 0.00 56 1011.9
20260901064523 67 153 0.9 1.7 0.00 0.00 0.00 62 1012.1
20260901063011 66 154 0.0 1.7 0.00 0.00 0.00 70 1012.1
20260901061554 68 311 0.0 0.9 0.00 0.00 0.00 77 1012.2
20260901060050 68 311 0.0 0.0 0.00 0.00 0.00 76 1012.3
20260901054533 68 311 0.0 0.0 0.00 0.00 0.00 85 1012.1
20260901053026 69 311 0.0 0.0 0.00 0.00 0.00 82 1011.8
20260901051510 69 311 0.0 0.9 0.00 0.00 0.00 82 1011.7
20260901050006 70 311 0.0 0.9 0.00 0.00 0.00 83 1011.6
20260901044546 70 321 0.9 0.9 0.00 0.00 0.00 86 1011.5
20260901043044 70 321 0.0 0.0 0.00 0.00 0.00 86 1011.3
20260901041526 71 321 0.0 0.0 0.00 0.00 0.00 87 1011.3